Albion, NE

6:47 PM CDT on September 22, 2017 (GMT -0500)
Albion Municipal

Weather History for KBVN - January, 2014

Change the Weather History Date:

Monday, January 27, 2014

  Actual Average (KOFK) Record (KOFK)
Temperature  
Mean Temperature 3 °F -  
Max Temperature 12 °F 30 °F 66 °F (1934)
Min Temperature -6 °F 10 °F -29 °F (1902)
Degree Days  
Heating Degree Days 62    
Moisture  
Dew Point -13 °F    
Average Humidity 50    
Maximum Humidity 71    
Minimum Humidity 31    
Precipitation  
Precipitation 0.00 in - - ()
Sea Level Pressure  
Sea Level Pressure 30.38 in    
Wind  
Wind Speed 10 mph (NNW)    
Max Wind Speed 18 mph    
Max Gust Speed 28 mph    
Visibility 10 miles    
Events      
Averages and records for this station are not official NWS values.
T = Trace of Precipitation, MM = Missing Value Source: NWS Daily Summary

Daily Weather History Graph

Daily Weather History Graph

Search for Another Location

Airport or City:

Trip Planner

Search our weather history database for the weather conditions in past years. The results will help you decide how hot, cold, wet, or windy it might be!

Date:

Astronomy

Jan. 27, 2014 Rise Set
Actual Time 7:49 AM CST 5:41 PM CST
Civil Twilight 7:19 AM CST 6:11 PM CST
Nautical Twilight 6:45 AM CST 6:44 PM CST
Astronomical Twilight 6:12 AM CST 7:17 PM CST
Moon 4:32 AM CST (1/27) 2:28 PM CST (1/27)
Length of Visible Light 10h 52m
Length of Day
9h 52m
Waning Crescent, 14% of the Moon is Illuminated
Jan 27
Waning Crescent
Jan 30
New
Feb 6
First Quarter
Feb 14
Full
Feb 22
Last Quarter

Hourly Weather History & Observations

Time (CST) Temp. Windchill Dew Point Humidity Pressure Visibility Wind Dir Wind Speed Gust Speed Precip Events Conditions
12:15 AM 5.4 °F -14.2 °F -11.7 °F 45% 30.28 in 10.0 mi NNW 18.4 mph 26.5 mph N/A   Clear
12:35 AM 5.0 °F -14.7 °F -13.0 °F 43% 30.28 in 10.0 mi NNW 18.4 mph 27.6 mph N/A   Clear
12:55 AM 4.5 °F -14.3 °F -12.5 °F 46% 30.29 in 10.0 mi NNW 16.1 mph 24.2 mph N/A   Clear
1:15 AM 4.5 °F -15.4 °F -12.1 °F 46% 30.30 in 10.0 mi NNW 18.4 mph 27.6 mph N/A   Clear
1:35 AM 3.9 °F -15.6 °F -12.6 °F 46% 30.30 in 10.0 mi NNW 17.3 mph 23.0 mph N/A   Clear
1:55 AM 3.7 °F -13.2 °F -12.5 °F 47% 30.31 in 10.0 mi North 12.7 mph - N/A   Clear
2:15 AM 3.2 °F -15.3 °F -12.5 °F 48% 30.31 in 10.0 mi NNW 15.0 mph 23.0 mph N/A   Clear
2:35 AM 2.7 °F -14.5 °F -12.5 °F 49% 30.32 in 10.0 mi NNW 12.7 mph 16.1 mph N/A   Clear
2:55 AM 2.1 °F -12.6 °F -12.3 °F 51% 30.32 in 10.0 mi NNW 9.2 mph - N/A   Clear
3:15 AM 1.9 °F -15.5 °F -12.1 °F 52% 30.33 in 10.0 mi NNW 12.7 mph 17.3 mph N/A   Clear
3:35 AM 1.2 °F -12.7 °F -11.4 °F 56% 30.34 in 10.0 mi NNW 8.1 mph - N/A   Clear
3:55 AM 0.1 °F -9.7 °F -11.4 °F 58% 30.35 in 10.0 mi WNW 4.6 mph - N/A   Clear
4:15 AM -1.1 °F - -11.6 °F 61% 30.35 in 10.0 mi Calm Calm - N/A   Clear
4:35 AM -2.4 °F -10.6 °F -12.1 °F 63% 30.35 in 10.0 mi West 3.5 mph - N/A   Clear
4:55 AM -2.9 °F -15.0 °F -11.0 °F 68% 30.36 in 10.0 mi WNW 5.8 mph - N/A   Clear
5:15 AM -3.3 °F -13.7 °F -11.4 °F 68% 30.36 in 10.0 mi NW 4.6 mph - N/A   Clear
5:35 AM -2.7 °F -11.0 °F -11.2 °F 67% 30.37 in 10.0 mi WNW 3.5 mph - N/A   Clear
5:55 AM -2.4 °F -12.7 °F -11.0 °F 67% 30.37 in 10.0 mi West 4.6 mph - N/A   Clear
6:15 AM -2.7 °F - -10.8 °F 68% 30.37 in 10.0 mi Calm Calm - N/A   Clear
6:35 AM -4.0 °F -14.6 °F -11.7 °F 69% 30.37 in 10.0 mi WNW 4.6 mph - N/A   Clear
6:55 AM -4.2 °F - -11.4 °F 71% 30.38 in 10.0 mi Calm Calm - N/A   Clear
7:15 AM -4.2 °F -12.6 °F -11.4 °F 71% 30.38 in 10.0 mi NW 3.5 mph - N/A   Clear
7:35 AM -3.3 °F -11.6 °F -10.5 °F 71% 30.39 in 10.0 mi NNW 3.5 mph - N/A   Clear
7:55 AM -4.0 °F - -11.2 °F 71% 30.40 in 10.0 mi Calm Calm - N/A   Clear
8:15 AM -2.7 °F -13.1 °F -10.3 °F 70% 30.40 in 10.0 mi NW 4.6 mph - N/A   Clear
8:35 AM -1.8 °F -9.9 °F -9.0 °F 71% 30.41 in 10.0 mi NW 3.5 mph - N/A   Clear
8:55 AM 0.1 °F -11.4 °F -8.7 °F 66% 30.42 in 10.0 mi NW 5.8 mph - N/A   Clear
9:15 AM 1.0 °F -12.9 °F -9.2 °F 62% 30.42 in 10.0 mi NNW 8.1 mph - N/A   Clear
9:35 AM 1.6 °F -13.3 °F -10.5 °F 57% 30.43 in 10.0 mi NNW 9.2 mph - N/A   Clear
9:55 AM 3.0 °F -10.5 °F -10.3 °F 54% 30.44 in 10.0 mi NNW 8.1 mph - N/A   Clear
10:15 AM 3.9 °F -13.0 °F -11.6 °F 49% 30.44 in 10.0 mi North 12.7 mph 16.1 mph N/A   Clear
10:35 AM 5.0 °F -10.8 °F -12.5 °F 45% 30.44 in 10.0 mi NNW 11.5 mph - N/A   Clear
10:55 AM 5.4 °F -8.6 °F -12.1 °F 45% 30.44 in 10.0 mi North 9.2 mph - N/A   Clear
11:15 AM 6.3 °F -8.4 °F -12.3 °F 42% 30.44 in 10.0 mi North 10.4 mph 17.3 mph N/A   Clear
11:35 AM 7.0 °F -9.1 °F -11.9 °F 42% 30.44 in 10.0 mi NNW 12.7 mph 16.1 mph N/A   Clear
11:55 AM 7.7 °F -5.8 °F -12.1 °F 40% 30.44 in 10.0 mi NW 9.2 mph - N/A   Clear
12:15 PM 7.7 °F -4.8 °F -11.7 °F 41% 30.43 in 10.0 mi NNW 8.1 mph - N/A   Clear
12:35 PM 8.8 °F -6.8 °F -12.1 °F 38% 30.42 in 10.0 mi NNW 12.7 mph 17.3 mph N/A   Clear
12:55 PM 9.5 °F -5.2 °F -11.9 °F 37% 30.40 in 10.0 mi NNW 11.5 mph 17.3 mph N/A   Clear
1:15 PM 10.0 °F -1.9 °F -12.5 °F 36% 30.39 in 10.0 mi North 8.1 mph 11.5 mph N/A   Clear
1:35 PM 10.4 °F -3.3 °F -12.1 °F 36% 30.39 in 10.0 mi NW 10.4 mph 16.1 mph N/A   Clear
1:55 PM 10.9 °F 0.2 °F -12.5 °F 34% 30.38 in 10.0 mi NW 6.9 mph 17.3 mph N/A   Clear
2:15 PM 11.5 °F -4.1 °F -12.6 °F 33% 30.37 in 10.0 mi NW 13.8 mph - N/A   Clear
2:35 PM 11.7 °F 0.0 °F -12.8 °F 33% 30.37 in 10.0 mi NW 8.1 mph - N/A   Clear
2:55 PM 12.0 °F -2.7 °F -13.2 °F 32% 30.36 in 10.0 mi NNW 12.7 mph 18.4 mph N/A   Clear
3:15 PM 12.0 °F -2.0 °F -13.2 °F 32% 30.37 in 10.0 mi NNW 11.5 mph 18.4 mph N/A   Clear
3:35 PM 12.0 °F -1.3 °F -13.4 °F 31% 30.37 in 10.0 mi NNW 10.4 mph - N/A   Clear
3:55 PM 12.2 °F -1.0 °F -13.4 °F 31% 30.37 in 10.0 mi NW 10.4 mph - N/A   Clear
4:15 PM 12.2 °F -2.5 °F -13.5 °F 31% 30.37 in 10.0 mi NW 12.7 mph - N/A   Clear
4:35 PM 11.8 °F 0.3 °F -13.9 °F 31% 30.37 in 10.0 mi NW 8.1 mph - N/A   Clear
4:55 PM 12.2 °F -0.2 °F -13.5 °F 31% 30.37 in 10.0 mi NW 9.2 mph - N/A   Clear
5:15 PM 11.3 °F -0.4 °F -14.1 °F 31% 30.37 in 10.0 mi NNW 8.1 mph - N/A   Clear
5:35 PM 10.2 °F 3.8 °F -14.8 °F 32% 30.37 in 10.0 mi North 3.5 mph - N/A   Clear
5:55 PM 8.4 °F 1.8 °F -15.5 °F 33% 30.37 in 10.0 mi North 3.5 mph - N/A   Clear
6:15 PM 6.6 °F -2.2 °F -15.7 °F 35% 30.38 in 10.0 mi North 4.6 mph - N/A   Clear
6:35 PM 4.5 °F -6.3 °F -15.9 °F 39% 30.38 in 10.0 mi NNE 5.8 mph - N/A   Clear
6:55 PM 5.4 °F -6.5 °F -15.3 °F 38% 30.38 in 10.0 mi NNE 6.9 mph - N/A   Clear
7:15 PM 4.5 °F - -15.7 °F 39% 30.38 in 10.0 mi Calm Calm - N/A   Clear
7:35 PM 3.0 °F -4.4 °F -15.5 °F 42% 30.39 in 10.0 mi NW 3.5 mph - N/A   Clear
7:55 PM 0.7 °F - -15.7 °F 46% 30.39 in 10.0 mi Calm Calm - N/A   Mostly Cloudy
8:15 PM -3.1 °F - -14.4 °F 58% 30.38 in 10.0 mi Calm Calm - N/A   Scattered Clouds
8:35 PM -2.4 °F - -15.2 °F 55% 30.38 in 10.0 mi Calm Calm - N/A   Scattered Clouds
8:55 PM -2.4 °F - -15.0 °F 55% 30.38 in 10.0 mi Calm Calm - N/A   Scattered Clouds
9:15 PM -2.6 °F -10.8 °F -14.6 °F 56% 30.38 in 10.0 mi NW 3.5 mph - N/A   Clear
9:35 PM -2.7 °F - -13.9 °F 59% 30.38 in 10.0 mi Calm Calm - N/A   Mostly Cloudy
9:55 PM -2.9 °F - -14.4 °F 58% 30.38 in 10.0 mi Calm Calm - N/A   Scattered Clouds
10:15 PM -4.2 °F - -14.8 °F 60% 30.39 in 10.0 mi Calm Calm - N/A   Clear
10:35 PM -5.3 °F - -14.8 °F 63% 30.39 in 10.0 mi Calm Calm - N/A   Clear
10:55 PM -5.4 °F - -15.5 °F 62% 30.39 in 10.0 mi Calm Calm - N/A   Clear
11:15 PM -4.4 °F - -15.0 °F 60% 30.38 in 10.0 mi Calm Calm - N/A   Clear
11:35 PM -6.3 °F - -15.2 °F 66% 30.39 in 10.0 mi Calm Calm - N/A   Clear
11:55 PM -5.6 °F - -14.8 °F 65% 30.39 in 10.0 mi Calm Calm - N/A   Clear